Wind_Speed
12 12 12 12 12 12 12 12 12 12 11 11 11 11 11 11 11 11 11 10 10 9 9 9 8 8 8 7 7 8 7 7 7 8 8 8 8 7 7 6 6 5 5
13 13 13 13 13 13 13 13 13 13 13 13 12 12 13 13 13 12 12 12 12 11 11 11 10 10 9 9 9 9 9 9 9 9 9 9 9 9 8 8 7 7 6
15 15 15 15 15 15 15 15 14 15 15 14 14 14 14 14 15 15 15 14 14 13 13 13 12 12 11 11 11 10 10 10 10 10 10 10 10 10 9 9 9 8 8
17 17 17 17 16 17 17 17 16 17 17 16 16 16 16 16 17 17 16 16 16 16 15 15 15 14 14 13 13 12 12 12 12 11 12 12 12 11 11 10 10 10 9
19 19 19 19 19 19 19 19 18 18 18 18 18 18 18 18 18 18 18 18 18 17 17 17 17 16 16 15 15 14 14 13 13 13 13 13 13 13 13 12 12 11 11
20 20 20 21 21 20 21 21 20 20 20 21 21 20 20 20 20 20 20 20 19 19 19 18 18 18 18 17 16 16 16 15 15 15 15 15 15 15 15 14 14 13 13
21 22 22 22 22 22 22 22 23 23 22 23 22 23 23 23 23 22 22 22 21 21 21 21 19 19 19 19 18 18 18 18 17 17 17 17 17 17 17 16 16 15 15
22 23 24 24 24 24 24 25 25 25 25 25 25 25 25 25 25 25 24 24 24 24 23 23 22 21 21 21 20 20 20 20 20 20 19 19 18 18 18 18 18 18 17
24 24 25 25 25 26 26 26 26 27 27 27 27 27 27 28 27 27 27 26 26 26 26 25 25 24 23 23 22 22 22 22 22 22 22 21 21 20 20 20 20 19 19
25 25 25 26 26 27 28 28 29 29 29 30 30 30 30 30 30 29 29 29 28 28 28 28 27 27 26 25 25 25 24 24 24 24 24 24 23 23 23 22 22 22 21
26 26 26 27 28 29 30 30 31 31 32 32 32 32 32 32 32 32 31 31 31 30 30 30 29 29 29 28 27 27 27 26 26 26 26 26 25 25 25 25 24 24 24
27 27 27 28 29 30 30 31 32 32 33 33 33 34 34 34 34 34 34 33 33 32 32 32 31 31 31 31 30 29 29 28 28 28 28 28 28 27 27 27 27 26 27
28 29 29 29 30 31 31 32 33 34 34 34 35 35 35 35 35 36 36 35 35 35 34 34 33 33 32 32 32 31 31 31 30 30 30 30 30 29 29 29 29 28 28
30 31 31 32 32 33 33 34 34 34 35 36 36 37 37 37 37 38 38 38 38 37 37 36 37 36 35 35 35 34 33 33 33 32 32 32 31 31 31 30 30 30 29
32 32 33 33 34 34 35 35 35 35 36 37 37 38 38 39 39 40 41 41 40 40 40 39 39 38 38 38 38 37 36 36 35 34 34 34 34 33 33 32 32 32 32
33 34 34 34 35 35 36 37 37 37 37 38 39 39 40 41 40 41 42 42 42 42 42 42 41 41 40 41 40 40 40 39 38 38 37 36 36 36 35 35 34 34 34
34 35 35 36 37 37 37 38 39 39 39 40 41 42 43 43 43 43 43 44 44 44 44 44 44 43 43 43 43 43 43 42 41 41 40 40 39 39 38 38 37 37 36
36 36 37 37 38 39 40 40 41 42 42 43 43 44 45 45 45 45 45 45 45 46 47 47 47 46 46 46 46 46 45 45 44 44 43 42 42 42 41 41 40 40 39
37 38 39 39 39 40 41 42 43 44 44 45 46 46 47 47 48 48 48 48 47 47 49 50 50 49 48 48 48 48 48 47 47 46 46 45 45 45 44 44 43 43 42
39 39 40 41 41 42 43 43 44 46 47 47 47 48 49 49 49 50 51 51 50 50 51 51 51 51 51 51 50 50 50 50 50 49 48 48 48 48 47 47 47 46 46
40 41 42 42 43 43 44 45 47 47 48 49 50 49 50 51 51 52 52 51 51 52 52 53 53 53 53 53 53 52 52 52 52 52 51 51 50 50 50 50 50 49 49
41 42 43 44 45 45 46 47 48 48 49 50 51 52 53 53 53 54 54 53 53 53 53 54 54 54 53 53 53 53 53 53 53 53 53 54 54 54 53 52 52 51 51
42 43 44 45 46 47 47 48 48 49 50 51 51 52 53 54 54 54 54 53 53 53 53 54 54 54 54 53 53 54 54 53 54 53 54 55 56 56 55 55 54 53 53
43 44 45 46 47 48 48 48 49 49 50 51 52 52 51 51 52 54 54 54 54 54 54 54 54 55 55 55 55 55 56 55 55 55 55 55 56 56 56 56 56 55 55
43 44 45 46 47 47 48 48 49 50 50 51 51 50 50 50 51 52 53 54 54 54 54 54 55 56 56 57 57 56 57 57 56 56 56 56 57 58 58 58 59 58 57
42 43 44 45 46 47 47 48 49 49 49 50 50 50 50 51 51 52 52 54 55 54 55 55 56 55 56 57 58 58 58 58 58 58 57 57 57 57 58 59 60 60 59
Wind_Direction
255 253 252 251 251 252 252 251 251 251 253 252 251 248 248 249 249 245 243 240 236 236 236 237 237 234 232 233 231 229 230 224 221 222 219 216 214 213 213 210 209 214 214
257 255 253 252 253 255 255 254 252 253 253 253 252 251 249 249 249 250 247 245 242 241 242 242 242 239 236 236 236 237 235 230 228 227 225 222 219 219 220 220 220 221 221
259 256 255 255 255 256 256 255 255 255 255 255 255 254 251 250 251 252 250 249 246 245 245 246 245 245 241 240 240 240 240 236 233 232 231 230 225 223 224 225 226 227 227
260 258 257 257 256 257 258 257 257 256 256 256 257 256 255 253 254 253 252 251 248 246 247 248 247 248 246 245 245 243 241 240 238 235 233 233 231 229 229 230 230 230 232
260 259 258 257 257 258 259 259 257 258 258 257 257 257 258 258 257 256 255 254 251 246 246 247 249 249 247 246 245 244 242 241 239 237 236 236 236 235 234 234 234 235 236
261 260 259 258 257 258 258 258 257 257 258 259 258 257 258 258 259 259 257 254 251 248 246 247 247 248 247 245 245 244 243 242 241 239 239 239 240 240 238 237 238 239 240
262 261 261 260 259 258 258 258 258 258 258 258 259 258 258 258 257 257 257 254 251 250 248 248 248 249 248 246 245 244 243 243 242 241 241 241 242 242 240 239 241 241 241
263 263 262 261 260 260 259 260 260 259 258 258 259 259 258 258 258 257 256 255 253 251 251 250 249 249 249 247 246 246 245 244 243 243 243 243 243 243 243 243 243 242 242
264 264 264 263 262 261 261 261 261 261 260 259 259 259 259 258 258 257 256 255 254 253 253 252 251 250 250 249 247 246 246 245 244 244 244 245 244 243 244 244 244 244 244
265 265 266 266 265 264 263 263 263 263 262 261 260 259 258 258 257 257 256 255 255 254 254 253 252 252 251 250 249 248 247 246 245 245 245 246 245 244 244 244 243 245 246
266 267 267 266 266 266 265 264 264 264 263 261 260 259 258 257 256 256 256 255 254 254 255 254 253 252 251 250 250 249 248 247 247 247 246 246 246 245 245 245 245 245 246
267 268 268 268 267 267 266 266 265 264 262 261 260 259 258 258 257 256 255 255 254 254 254 255 254 253 252 252 250 250 249 249 248 248 247 247 246 246 246 246 246 246 247
268 268 269 269 269 268 267 266 266 264 262 261 261 260 259 258 257 256 255 254 254 254 254 255 254 253 253 253 252 251 250 250 249 249 248 247 247 247 247 247 247 247 248
269 270 269 270 270 269 269 268 266 264 262 261 261 261 260 260 258 256 255 254 254 254 254 255 254 254 253 253 253 252 252 251 250 249 249 248 247 247 247 247 248 248 249
270 270 271 271 271 271 270 269 267 265 263 262 261 261 261 260 259 258 256 254 255 254 254 255 255 254 254 254 254 254 253 251 251 250 249 249 248 248 247 247 248 248 249
271 271 271 272 273 272 271 269 267 266 264 264 262 262 261 261 259 257 257 255 256 255 254 254 255 254 255 255 255 255 254 252 251 250 250 249 248 248 248 248 248 248 248
271 271 272 273 273 273 272 270 268 266 265 265 264 263 263 261 259 258 258 256 256 256 256 255 255 255 256 256 255 255 254 253 251 251 250 250 249 248 249 249 248 248 248
272 272 272 273 274 273 272 271 269 268 266 266 265 265 264 263 262 261 260 259 257 256 257 257 256 256 257 257 256 255 254 254 253 252 251 250 249 249 249 249 248 248 248
272 273 273 274 274 273 272 271 270 269 268 267 267 266 265 264 264 263 262 261 259 258 258 258 257 258 257 257 256 255 255 255 254 253 252 251 250 249 249 249 249 248 248
273 274 275 275 274 274 274 273 272 270 269 268 268 268 266 265 264 263 263 261 259 259 258 258 258 258 258 258 257 256 256 256 255 253 252 252 251 250 250 250 250 250 250
275 275 276 276 276 276 275 275 273 273 271 270 269 269 268 267 265 263 262 261 259 259 260 260 258 258 258 258 257 256 256 256 255 254 252 252 251 251 250 250 250 250 250
276 276 276 276 277 276 276 276 275 274 273 272 271 270 270 269 266 264 262 261 260 259 259 259 258 258 258 258 257 257 256 256 255 254 253 252 251 251 251 251 250 250 250
277 277 277 277 277 278 278 277 276 274 274 273 273 272 270 269 267 265 263 262 261 260 259 258 258 257 257 257 257 257 256 255 255 254 254 253 252 251 251 250 250 250 249
279 277 277 278 278 278 278 278 277 276 275 274 273 272 271 269 267 265 264 262 262 261 260 259 259 258 257 257 257 257 257 256 256 254 254 254 252 252 251 250 250 250 249
281 280 279 279 279 279 279 279 277 276 275 274 273 272 270 269 267 266 264 263 262 261 261 260 259 259 257 257 257 257 257 256 256 256 255 254 253 253 251 250 249 249 249
284 282 280 280 281 281 280 280 279 277 276 275 273 272 270 269 268 267 267 265 264 263 262 261 260 260 258 258 258 258 257 257 257 256 256 254 253 252 252 250 249 249 249
Height
5841 5840 5840 5840 5840 5840 5840 5841 5841 5841 5841 5841 5841 5841 5841 5841 5841 5842 5841 5841 5841 5841 5842 5842 5842 5842 5843 5843 5843 5843 5844 5844 5845 5845 5845 5846 5847 5847 5848 5848 5849 5849 5849
5838 5837 5838 5838 5838 5838 5838 5838 5838 5838 5838 5838 5838 5839 5839 5839 5839 5839 5839 5839 5839 5839 5840 5840 5840 5840 5841 5841 5841 5842 5842 5843 5843 5844 5844 5845 5845 5846 5847 5847 5847 5848 5848
5834 5834 5834 5834 5835 5835 5835 5835 5835 5836 5836 5836 5836 5836 5836 5836 5836 5836 5837 5837 5837 5837 5837 5837 5838 5838 5839 5839 5839 5840 5840 5841 5841 5842 5843 5843 5844 5844 5845 5846 5846 5847 5847
5831 5831 5831 5831 5831 5831 5832 5832 5832 5832 5833 5833 5833 5833 5833 5833 5833 5834 5834 5834 5834 5834 5834 5835 5835 5836 5836 5837 5837 5838 5838 5839 5839 5840 5840 5841 5842 5842 5843 5844 5845 5845 5846
5827 5826 5827 5827 5827 5827 5828 5828 5828 5828 5829 5829 5829 5829 5830 5830 5830 5830 5830 5831 5831 5831 5831 5831 5832 5832 5833 5834 5834 5835 5835 5836 5837 5837 5838 5839 5839 5840 5841 5842 5843 5843 5844
5822 5822 5822 5822 5823 5823 5823 5824 5824 5824 5824 5825 5825 5825 5825 5826 5826 5826 5827 5827 5827 5827 5827 5828 5828 5829 5830 5830 5831 5832 5832 5833 5834 5834 5835 5836 5837 5838 5838 5839 5840 5841 5841
5817 5817 5817 5817 5817 5818 5818 5818 5819 5819 5820 5820 5820 5820 5821 5821 5822 5822 5822 5822 5823 5823 5823 5823 5824 5825 5826 5826 5827 5828 5829 5830 5830 5831 5832 5833 5834 5834 5835 5836 5837 5838 5839
5812 5812 5812 5812 5812 5812 5813 5813 5813 5814 5814 5815 5815 5815 5816 5816 5817 5817 5817 5818 5818 5819 5819 5819 5820 5820 5821 5822 5823 5824 5825 5826 5827 5828 5828 5829 5830 5831 5832 5833 5834 5835 5836
5807 5806 5806 5806 5806 5806 5807 5807 5807 5808 5808 5808 5809 5809 5810 5810 5811 5812 5812 5812 5813 5813 5814 5814 5815 5816 5817 5817 5818 5819 5820 5821 5822 5823 5824 5825 5826 5827 5828 5829 5830 5831 5832
5801 5801 5800 5800 5800 5800 5800 5800 5800 5801 5801 5801 5802 5802 5803 5804 5805 5805 5806 5807 5807 5808 5808 5809 5810 5810 5811 5812 5813 5814 5815 5816 5817 5818 5819 5820 5821 5822 5823 5824 5826 5827 5828
5795 5795 5794 5794 5794 5793 5793 5793 5793 5793 5794 5794 5794 5795 5795 5796 5797 5798 5799 5800 5801 5801 5802 5803 5803 5804 5805 5806 5807 5808 5809 5811 5812 5813 5814 5815 5816 5817 5818 5820 5821 5822 5823
5789 5788 5788 5787 5787 5786 5786 5786 5786 5786 5786 5786 5787 5787 5788 5788 5789 5790 5791 5792 5793 5794 5795 5796 5797 5798 5799 5800 5801 5802 5803 5804 5805 5807 5808 5809 5810 5812 5813 5814 5815 5816 5817
5782 5782 5781 5781 5780 5779 5778 5778 5778 5777 5778 5778 5778 5779 5779 5780 5781 5782 5782 5784 5785 5786 5787 5788 5789 5790 5791 5793 5794 5795 5796 5797 5799 5800 5801 5803 5804 5805 5806 5808 5809 5810 5811
5775 5774 5774 5773 5772 5771 5771 5770 5769 5769 5769 5769 5770 5770 5771 5771 5772 5773 5773 5775 5776 5777 5779 5780 5781 5782 5784 5785 5786 5787 5789 5790 5791 5792 5794 5795 5797 5798 5800 5801 5802 5804 5805
5767 5766 5766 5765 5764 5763 5762 5761 5760 5760 5760 5760 5761 5761 5761 5762 5762 5763 5764 5765 5766 5768 5769 5771 5772 5773 5775 5776 5778 5779 5781 5782 5783 5785 5786 5788 5789 5791 5792 5794 5795 5796 5798
5759 5758 5757 5756 5755 5754 5753 5752 5751 5751 5751 5751 5751 5751 5751 5751 5752 5753 5753 5754 5756 5757 5759 5761 5762 5764 5765 5767 5768 5770 5771 5773 5774 5776 5778 5779 5781 5783 5784 5786 5787 5789 5790
5750 5749 5748 5747 5746 5744 5743 5742 5741 5741 5741 5741 5740 5740 5740 5741 5741 5741 5742 5743 5745 5746 5748 5750 5751 5753 5755 5756 5758 5759 5761 5763 5764 5766 5768 5770 5772 5774 5775 5777 5779 5780 5782
5741 5740 5739 5737 5736 5734 5733 5732 5731 5730 5730 5730 5729 5729 5729 5729 5730 5730 5731 5732 5733 5735 5736 5738 5740 5742 5743 5745 5746 5748 5750 5752 5754 5755 5757 5759 5762 5764 5766 5768 5770 5771 5773
5731 5730 5728 5727 5725 5724 5722 5721 5720 5719 5718 5718 5718 5717 5717 5717 5717 5718 5719 5720 5721 5722 5724 5725 5727 5729 5731 5732 5734 5736 5738 5740 5742 5744 5746 5748 5750 5753 5755 5757 5759 5761 5763
5721 5719 5718 5716 5715 5713 5711 5710 5708 5707 5706 5705 5705 5705 5704 5704 5704 5705 5706 5707 5708 5709 5711 5712 5714 5715 5717 5719 5721 5723 5725 5727 5729 5731 5733 5736 5738 5740 5743 5746 5748 5750 5753
5710 5708 5707 5705 5703 5701 5700 5698 5696 5694 5693 5692 5691 5691 5690 5690 5690 5691 5691 5692 5694 5695 5696 5697 5699 5701 5703 5704 5707 5709 5711 5713 5715 5717 5720 5722 5725 5727 5730 5733 5736 5739 5741
5699 5697 5695 5693 5691 5689 5687 5685 5683 5681 5680 5678 5677 5676 5676 5675 5675 5676 5676 5677 5678 5679 5680 5682 5684 5686 5688 5689 5691 5693 5696 5699 5701 5703 5705 5708 5711 5714 5717 5720 5723 5726 5729
5687 5686 5683 5681 5678 5676 5674 5672 5669 5667 5666 5664 5663 5661 5660 5660 5660 5660 5661 5661 5663 5664 5665 5667 5668 5670 5672 5674 5676 5678 5681 5684 5686 5690 5691 5693 5696 5699 5702 5705 5709 5712 5715
5676 5673 5671 5668 5666 5663 5661 5658 5656 5654 5652 5651 5649 5648 5646 5645 5645 5645 5645 5646 5647 5648 5649 5651 5653 5654 5657 5659 5661 5663 5665 5667 5671 5675 5678 5679 5681 5684 5687 5690 5694 5698 5701
5663 5661 5658 5656 5653 5650 5648 5645 5643 5641 5639 5637 5635 5634 5632 5631 5631 5630 5630 5631 5631 5632 5634 5635 5637 5638 5640 5643 5645 5647 5649 5651 5654 5658 5662 5664 5666 5669 5672 5675 5679 5682 5686
5652 5649 5646 5643 5641 5638 5635 5632 5629 5627 5625 5623 5621 5620 5619 5618 5617 5616 5615 5616 5616 5617 5618 5619 5621 5622 5624 5626 5628 5630 5633 5635 5638 5640 5645 5648 5651 5653 5656 5659 5663 5666 5670